Georgetown, SC

5:15 PM EDT on August 20, 2017 (GMT -0400)
Georgetown County

Weather History for KGGE - August, 2014

Change the Weather History Date:

Monday, August 4, 2014

  Actual Average Record
Temperature  
Mean Temperature 76 °F -  
Max Temperature 78 °F 90 °F 96 °F (2011)
Min Temperature 73 °F 72 °F 69 °F (2012)
Cooling Degree Days 10    
Growing Degree Days 26 (Base 50)    
Moisture  
Dew Point 74 °F    
Average Humidity 91    
Maximum Humidity 100    
Minimum Humidity 83    
Precipitation  
Precipitation 0.01 in - - ()
Sea Level Pressure  
Sea Level Pressure 30.03 in    
Wind  
Wind Speed 4 mph (NE)    
Max Wind Speed 8 mph    
Max Gust Speed -    
Visibility 10 miles    
Events Thunderstorm    
Averages and records for this station are not official NWS values.
T = Trace of Precipitation, MM = Missing Value Source: NWS Daily Summary

Daily Weather History Graph

Daily Weather History Graph

Search for Another Location

Airport or City:

Trip Planner

Search our weather history database for the weather conditions in past years. The results will help you decide how hot, cold, wet, or windy it might be!

Date:

Astronomy

Aug. 04, 2014 Rise Set
Actual Time 6:32 AM EDT 8:14 PM EDT
Civil Twilight 6:05 AM EDT 8:40 PM EDT
Nautical Twilight 5:32 AM EDT 9:13 PM EDT
Astronomical Twilight 4:58 AM EDT 9:47 PM EDT
Moon 2:25 PM EDT (8/4) 12:35 AM EDT (8/4)
Length of Visible Light 14h 35m
Length of Day
13h 41m
First Quarter, 57% of the Moon is Illuminated
Aug 4
First Quarter
Aug 10
Full
Aug 17
Last Quarter
Aug 25
New
Sep 2
First Quarter

Hourly Weather History & Observations

Time (EDT) Temp. Dew Point Humidity Pressure Visibility Wind Dir Wind Speed Gust Speed Precip Events Conditions
12:15 AM - - N/A% 30.05 in 10.0 mi East 3.5 mph - N/A   Clear
12:35 AM - - N/A% 30.04 in 10.0 mi NNE 3.5 mph - N/A   Clear
12:55 AM - - N/A% 30.04 in 10.0 mi North 4.6 mph - N/A   Clear
1:35 AM - - N/A% 30.04 in 10.0 mi North 3.5 mph - N/A   Scattered Clouds
1:55 AM - - N/A% 30.04 in 10.0 mi NNE 4.6 mph - N/A   Scattered Clouds
2:15 AM - - N/A% 30.03 in 10.0 mi NNE 4.6 mph - N/A   Clear
2:35 AM - - N/A% 30.03 in 10.0 mi North 3.5 mph - N/A   Mostly Cloudy
2:55 AM - - N/A% 30.02 in 10.0 mi North 3.5 mph - N/A   Overcast
3:15 AM - - N/A% 30.02 in 10.0 mi NE 3.5 mph - N/A   Mostly Cloudy
3:35 AM - - N/A% 30.01 in 10.0 mi North 4.6 mph - N/A Thunderstorm Thunderstorm
3:55 AM - - N/A% 30.00 in 10.0 mi NNE 4.6 mph - N/A   Mostly Cloudy
4:15 AM - - N/A% 30.01 in 10.0 mi ENE 5.8 mph - N/A Thunderstorm Scattered Clouds
4:35 AM - - N/A% 30.01 in 10.0 mi Calm Calm - N/A   Scattered Clouds
5:15 AM - - N/A% 30.01 in 10.0 mi NE 4.6 mph - N/A   Scattered Clouds
5:55 AM - - N/A% 30.01 in 10.0 mi NNE 3.5 mph - N/A Thunderstorm Mostly Cloudy
6:15 AM - - N/A% 30.01 in 10.0 mi North 4.6 mph - N/A Thunderstorm Scattered Clouds
6:35 AM - - N/A% 30.02 in 10.0 mi NNE 4.6 mph - N/A Thunderstorm Mostly Cloudy
6:55 AM - - N/A% 30.03 in 10.0 mi NNE 5.8 mph - N/A Thunderstorm Overcast
7:15 AM - - N/A% 30.03 in 10.0 mi NNE 5.8 mph - N/A Thunderstorm Overcast
7:35 AM - - N/A% 30.04 in 10.0 mi Calm Calm - N/A Thunderstorm Mostly Cloudy
7:55 AM - - N/A% 30.04 in 10.0 mi NNE 4.6 mph - N/A Thunderstorm Mostly Cloudy
8:15 AM - - N/A% 30.05 in 10.0 mi NE 3.5 mph - N/A Thunderstorm Overcast
8:55 AM - - N/A% 30.06 in 10.0 mi NE 4.6 mph - 0.01 in Thunderstorm Mostly Cloudy
9:15 AM - - N/A% 30.06 in 10.0 mi NNE 6.9 mph - N/A Thunderstorm Scattered Clouds
9:35 AM - - N/A% 30.05 in 10.0 mi NE 6.9 mph - N/A Thunderstorm Scattered Clouds
9:55 AM - - N/A% 30.06 in 10.0 mi NE 4.6 mph - N/A Thunderstorm Overcast
10:15 AM - - N/A% 30.06 in 10.0 mi NNE 5.8 mph - N/A   Mostly Cloudy
10:35 AM 75.2 °F 75.2 °F 100% 30.07 in 10.0 mi NE 4.6 mph - N/A   Overcast
10:55 AM 75.2 °F 75.2 °F 100% 30.07 in 10.0 mi ESE 6.9 mph - N/A   Overcast
11:15 AM 77.0 °F 77.0 °F 100% 30.07 in 10.0 mi East 6.9 mph - N/A   Overcast
11:35 AM 77.0 °F 77.0 °F 100% 30.07 in 10.0 mi ESE 8.1 mph - N/A   Mostly Cloudy
11:55 AM 77.0 °F 77.0 °F 100% 30.07 in 10.0 mi East 5.8 mph - N/A   Mostly Cloudy
12:35 PM 78.8 °F 73.4 °F 83% 30.06 in 10.0 mi ENE 3.5 mph - N/A   Scattered Clouds
12:55 PM 78.8 °F 73.4 °F 83% 30.06 in 10.0 mi East 3.5 mph - N/A   Clear
1:15 PM 77.0 °F 73.4 °F 89% 30.06 in 10.0 mi Calm Calm - N/A   Scattered Clouds
1:55 PM 77.0 °F 75.2 °F 94% 30.06 in 10.0 mi SE 6.9 mph - N/A   Light Drizzle
2:15 PM 78.8 °F 73.4 °F 83% 30.05 in 10.0 mi East 4.6 mph - N/A   Scattered Clouds
2:35 PM 78.8 °F 73.4 °F 83% 30.04 in 10.0 mi East 4.6 mph - N/A   Scattered Clouds
2:55 PM 78.8 °F 73.4 °F 83% 30.04 in 10.0 mi Calm Calm - N/A   Scattered Clouds
3:15 PM 78.8 °F 73.4 °F 83% 30.04 in 10.0 mi East 3.5 mph - N/A   Mostly Cloudy
3:35 PM 78.8 °F 73.4 °F 83% 30.04 in 10.0 mi SE 3.5 mph - N/A   Scattered Clouds
3:55 PM 78.8 °F 73.4 °F 83% 30.04 in 10.0 mi Calm Calm - N/A   Clear
4:35 PM 78.8 °F 73.4 °F 83% 30.02 in 10.0 mi ENE 5.8 mph - N/A   Clear
5:15 PM 78.8 °F 73.4 °F 83% 30.02 in 10.0 mi East 4.6 mph - N/A   Clear
5:35 PM 78.8 °F 73.4 °F 83% 30.01 in 10.0 mi ENE 4.6 mph - N/A   Clear
5:55 PM 78.8 °F 73.4 °F 83% 30.02 in 10.0 mi East 5.8 mph - N/A   Clear
6:15 PM 77.0 °F 73.4 °F 89% 30.01 in 10.0 mi East 4.6 mph - N/A   Clear
6:35 PM 78.8 °F 73.4 °F 83% 30.01 in 10.0 mi East 6.9 mph - N/A   Clear
6:55 PM 78.8 °F 73.4 °F 83% 30.01 in 10.0 mi ENE 5.8 mph - N/A   Clear
7:35 PM 77.0 °F 73.4 °F 89% 30.02 in 10.0 mi ENE 3.5 mph - N/A   Clear
7:55 PM 77.0 °F 73.4 °F 89% 30.03 in 10.0 mi ENE 3.5 mph - N/A   Scattered Clouds
8:15 PM 77.0 °F 73.4 °F 89% 30.03 in 10.0 mi Calm Calm - N/A   Mostly Cloudy
8:35 PM 75.2 °F 73.4 °F 94% 30.02 in 7.0 mi Calm Calm - N/A   Scattered Clouds
8:55 PM 73.4 °F 73.4 °F 100% 30.03 in 10.0 mi Calm Calm - N/A   Clear
9:15 PM 73.4 °F 73.4 °F 100% 30.02 in 10.0 mi NE 3.5 mph - N/A   Clear
9:35 PM 73.4 °F 73.4 °F 100% 30.03 in 10.0 mi ENE 4.6 mph - N/A   Clear
9:55 PM 73.4 °F 73.4 °F 100% 30.03 in 10.0 mi East 4.6 mph - N/A   Clear
10:35 PM 73.4 °F 73.4 °F 100% 30.03 in 10.0 mi Calm Calm - N/A   Clear
10:55 PM 73.4 °F 73.4 °F 100% 30.03 in 10.0 mi NE 3.5 mph - N/A   Clear
11:15 PM 73.4 °F 73.4 °F 100% 30.03 in 10.0 mi NE 4.6 mph - N/A   Scattered Clouds
11:35 PM 73.4 °F 73.4 °F 100% 30.03 in 10.0 mi NNE 4.6 mph - N/A   Scattered Clouds
11:55 PM 73.4 °F 73.4 °F 100% 30.03 in 10.0 mi Calm Calm - N/A   Clear